Theta_e
345 352 353 352 351 350 349 349 349 349 349 349 350 351 351 352 352 352 352 351 351 352 353 353 353 353 352 352 353 354 354 356 357 356 356 357 357 358 357 357 357 354 359
350 354 353 352 351 349 349 349 350 350 350 351 350 349 349 348 348 347 346 346 347 348 349 349 350 351 352 352 351 351 351 352 354 353 354 356 357 356 355 356 357 354 356
349 353 352 351 350 349 349 350 349 348 348 345 344 344 342 342 341 339 338 338 338 339 339 340 342 345 346 347 349 350 350 350 351 352 354 354 355 358 355 353 355 356 357
352 354 352 351 349 348 346 345 344 343 342 341 339 338 337 337 336 336 336 337 337 337 336 336 336 336 337 339 341 343 345 347 349 352 348 346 348 357 356 352 353 353 356
352 354 352 348 346 344 343 343 342 340 339 338 336 336 335 335 335 334 334 335 336 336 336 336 335 334 333 334 334 336 338 340 344 346 343 343 345 351 354 353 354 353 355
347 348 348 345 344 342 340 340 339 338 337 336 335 333 332 333 333 333 333 334 334 335 336 335 335 334 334 334 334 333 334 335 338 340 342 345 345 346 346 348 352 354 353
344 345 344 344 342 340 338 337 337 337 334 332 331 332 331 331 332 333 333 334 334 333 334 335 335 334 333 333 333 333 334 335 333 334 340 343 344 346 343 345 353 353 354
344 342 340 342 341 339 337 337 336 333 333 333 333 332 332 331 331 331 331 331 334 332 332 332 332 333 332 332 332 330 332 333 326 332 335 338 344 343 340 343 348 354 354
344 342 340 339 339 338 337 336 335 333 332 331 331 329 328 328 328 328 328 330 330 331 330 330 330 330 331 330 328 329 331 332 327 323 331 335 340 338 336 341 344 348 353
342 340 340 339 337 336 333 336 335 333 332 331 331 328 327 329 331 329 329 328 329 329 329 329 330 329 329 329 329 329 330 331 328 325 324 334 338 336 335 339 343 346 348
338 338 338 337 338 338 336 336 336 335 334 334 333 330 330 332 331 330 330 325 326 327 329 329 329 329 330 331 332 331 331 326 325 325 325 335 335 337 339 343 345 347 350
335 336 337 336 336 336 333 335 334 337 338 337 335 334 334 333 333 328 330 329 328 328 329 330 330 330 329 327 329 333 328 326 325 325 327 333 331 330 336 340 343 347 351
336 336 336 334 336 335 331 333 334 334 337 336 335 334 336 334 335 332 330 330 330 330 329 329 329 328 327 326 326 325 326 326 325 325 329 331 330 328 333 336 340 343 349
336 337 337 334 335 335 333 333 334 333 333 333 334 335 334 333 333 332 330 329 329 328 328 328 327 328 327 328 326 325 325 325 325 325 329 331 329 327 330 333 336 341 346
336 339 337 335 334 333 333 335 335 335 334 334 333 333 333 333 336 333 332 331 330 329 328 327 326 326 326 327 326 326 325 326 325 325 325 335 331 330 330 331 333 336 342
336 338 338 336 337 335 335 336 335 336 336 337 339 338 335 334 334 333 332 330 329 329 328 328 327 327 325 326 325 326 326 325 326 326 325 326 338 335 332 331 331 333 337
337 340 340 337 337 338 337 336 336 335 334 337 342 339 336 338 339 336 332 330 330 333 333 330 329 327 325 325 325 326 326 327 326 326 325 324 327 337 336 332 331 331 332
339 339 340 335 336 337 337 337 336 335 335 334 333 336 337 339 337 334 331 330 332 335 332 330 328 325 325 325 325 325 325 326 325 325 324 324 325 324 333 335 333 331 331
340 339 338 338 335 337 340 339 340 340 337 335 335 332 337 338 334 333 330 330 336 332 331 331 328 327 325 324 324 324 325 324 325 323 324 324 325 325 325 335 337 334 332
340 340 339 338 339 339 337 339 336 335 335 334 333 333 333 332 332 333 330 334 335 329 329 328 327 326 328 325 323 323 323 324 324 324 323 324 324 325 327 329 329 330 334
339 338 339 339 341 338 336 334 332 330 335 335 331 334 332 330 328 331 327 331 336 332 331 334 332 327 326 324 323 321 322 325 325 323 323 323 324 325 326 327 328 327 329
337 339 339 340 342 341 338 337 337 334 329 326 327 328 329 328 326 325 326 325 329 324 331 330 330 327 327 327 323 321 314 317 321 322 324 322 325 324 326 326 328 328 330
332 337 340 341 342 343 342 339 337 336 332 327 326 323 326 326 326 326 326 325 326 327 320 328 326 328 321 326 325 321 315 310 316 321 322 322 326 325 327 327 327 327 328
335 337 341 344 344 343 343 338 334 326 320 320 322 322 326 328 326 325 328 326 326 323 326 323 325 327 326 323 327 327 323 322 314 311 318 321 319 324 327 323 324 328 328
334 329 335 337 336 341 341 337 324 331 322 321 321 331 336 333 326 325 325 326 323 321 324 326 327 327 324 325 322 324 325 321 323 316 311 314 323 319 320 325 324 324 328
336 328 337 338 340 338 332 330 334 332 329 325 326 323 321 326 323 328 323 325 327 325 324 325 326 325 325 325 324 324 324 320 318 319 315 315 315 318 321 325 328 325 326
Wind_Speed
10 13 12 12 11 11 11 11 11 12 13 13 13 13 14 14 14 14 13 13 12 13 13 12 11 10 10 9 10 10 10 10 9 5 3 3 5 5 3 1 3 2 9
14 13 12 12 11 10 11 11 11 11 12 13 14 13 13 13 13 13 13 13 13 13 12 12 12 11 10 10 9 9 8 8 7 5 3 6 7 6 2 3 6 7 8
13 13 13 11 11 10 10 11 12 12 12 12 12 12 12 12 12 12 12 12 12 11 11 10 10 9 9 10 10 9 8 7 7 8 10 10 9 10 5 2 3 6 7
13 10 11 12 12 11 10 11 11 11 11 11 11 10 10 10 10 11 11 11 11 11 10 9 9 9 9 8 8 8 9 9 9 12 11 8 7 13 8 2 1 3 5
14 12 13 13 11 10 10 10 9 9 9 9 9 9 9 9 9 9 9 9 9 9 9 9 8 7 7 7 6 7 8 9 12 13 14 2 6 8 8 3 6 7 7
12 13 14 13 11 10 9 8 8 8 8 8 7 7 7 7 7 7 7 7 8 7 8 7 7 6 6 6 6 6 7 8 12 11 4 5 7 9 6 1 4 3 7
13 14 14 13 11 10 9 9 8 8 8 7 7 6 6 5 5 5 5 7 7 6 7 8 7 6 5 5 5 6 7 8 11 12 7 3 6 8 4 3 6 5 5
12 12 14 13 11 10 9 8 8 8 7 7 6 7 5 3 4 4 3 5 8 5 6 6 6 8 5 3 4 5 7 9 11 13 10 6 10 8 3 5 6 7 7
15 15 13 13 11 10 9 8 7 7 6 4 4 3 3 3 2 2 2 4 6 6 5 4 5 5 5 4 4 5 8 11 12 10 9 6 10 6 1 5 7 8 9
11 11 14 14 14 13 12 9 7 6 5 4 3 2 4 6 9 7 5 5 6 6 5 5 5 7 8 9 11 9 11 16 14 13 5 7 9 4 3 8 10 10 11
10 11 11 11 8 3 13 11 10 8 8 8 8 8 9 6 2 1 10 2 3 5 7 6 6 10 13 17 16 14 12 9 7 5 4 11 9 6 6 9 10 12 12
11 10 8 6 7 6 5 10 8 10 10 4 1 3 7 4 3 6 4 8 8 9 10 11 12 14 15 11 7 15 9 7 6 6 1 11 7 3 6 10 10 11 13
10 7 8 8 6 8 7 5 5 4 3 6 4 4 1 4 0 5 4 6 1 11 5 10 9 10 9 8 7 8 8 7 6 5 6 9 6 1 8 10 11 10 12
12 10 8 13 8 1 4 4 2 4 1 4 5 2 3 5 2 3 5 4 5 4 4 6 6 6 8 8 10 9 9 8 7 6 8 8 6 2 7 12 12 12 11
12 10 9 6 5 7 4 2 3 3 3 5 4 3 4 5 3 6 5 5 5 6 6 5 6 6 8 9 9 8 9 9 10 7 7 7 11 9 9 12 13 12 12
12 11 9 8 6 5 5 3 3 4 4 5 2 2 4 6 5 7 7 8 6 7 7 6 9 8 8 8 9 8 8 10 10 11 9 9 9 12 14 14 13 13 13
11 11 9 8 9 7 6 5 7 5 5 2 1 1 4 5 7 7 9 7 9 5 6 8 10 7 9 9 9 9 9 10 9 10 10 9 10 17 17 16 16 13 12
12 10 10 9 11 9 8 6 6 5 6 6 6 5 6 5 6 8 9 9 5 4 4 4 5 9 8 9 8 9 10 9 10 10 10 9 9 9 12 17 16 14 13
11 10 11 10 9 10 10 7 5 6 6 8 6 3 5 3 9 7 8 10 8 4 6 4 6 6 9 9 10 10 10 9 10 9 10 10 10 9 8 8 16 14 14
12 12 11 10 10 8 6 5 5 7 9 6 5 5 6 8 11 8 9 9 5 6 6 7 6 9 8 10 11 12 11 11 10 7 9 10 10 11 9 6 6 11 17
13 12 11 10 8 7 7 8 9 8 6 5 4 3 7 7 11 10 9 7 7 8 10 12 11 11 10 9 8 10 12 13 10 10 6 10 9 7 7 5 6 7 7
12 7 11 10 10 9 8 6 5 6 6 7 6 3 6 4 7 8 9 9 9 10 10 10 11 10 11 11 9 8 12 10 5 4 5 7 7 5 5 8 7 6 9
8 13 11 12 13 9 8 4 5 7 8 8 5 3 5 5 5 8 8 8 9 9 11 10 12 11 9 10 13 5 5 9 2 5 7 7 7 4 5 5 6 7 9
8 9 4 10 13 9 7 6 3 6 7 6 6 5 3 9 6 8 5 6 8 10 12 12 12 8 9 10 8 9 9 12 8 9 4 5 4 12 8 9 9 8 10
11 8 8 5 5 4 7 7 4 8 6 6 7 7 6 8 4 13 5 5 7 9 11 13 12 11 9 9 8 8 9 9 8 7 10 7 7 4 6 10 10 4 8
9 10 17 8 8 9 6 6 7 7 8 9 8 8 11 1 9 8 4 7 8 11 12 11 12 12 9 10 9 9 9 7 6 7 8 11 10 8 7 4 5 4 7
Wind_Direction
126 119 121 110 102 95 93 87 86 83 82 79 76 75 72 68 65 63 60 59 57 56 57 57 58 55 51 48 38 36 40 42 41 46 72 109 99 81 60 332 336 53 121
127 122 122 111 107 103 92 96 93 88 83 78 73 69 69 68 65 60 56 52 50 47 45 40 37 38 38 43 33 30 29 22 16 355 262 198 145 123 79 3 22 123 135
129 126 126 121 112 99 94 87 80 78 77 77 74 70 68 66 64 61 55 51 47 41 34 33 32 29 28 26 21 16 14 6 349 313 284 248 150 136 116 25 63 125 137
128 125 122 119 111 112 103 95 88 84 82 80 76 69 65 63 65 63 60 52 49 46 38 34 24 18 13 12 11 359 354 347 332 308 276 257 155 129 125 146 117 142 155
135 136 120 122 117 109 103 99 95 91 85 80 73 69 66 67 66 60 50 47 44 39 37 35 32 23 14 1 354 351 340 334 318 297 261 341 338 89 104 145 202 182 193
139 126 128 126 122 115 108 103 101 92 84 78 72 64 65 66 64 56 46 34 26 20 16 18 15 11 15 3 356 347 329 318 303 269 242 287 297 98 65 352 272 292 190
134 137 135 131 126 123 121 114 103 93 85 77 73 68 63 59 43 34 27 20 2 358 355 352 352 352 345 3 359 346 331 315 289 278 277 236 257 102 69 319 249 236 209
162 143 138 137 136 132 124 115 111 106 98 93 76 62 61 66 42 26 31 19 14 15 356 2 17 11 16 3 359 337 324 308 286 259 249 246 110 120 109 297 289 239 226
175 140 146 150 140 138 132 131 123 123 119 105 97 67 66 91 87 49 60 31 8 354 354 9 7 359 353 335 300 300 298 288 284 262 261 240 100 91 61 277 269 259 247
165 154 161 148 169 176 154 152 153 154 150 159 163 184 236 214 180 203 170 55 357 336 318 310 321 310 293 272 260 257 265 274 259 259 272 90 102 74 304 274 267 258 249
168 166 163 164 143 169 136 150 173 177 188 195 194 207 251 235 303 76 82 58 304 301 299 278 277 277 275 269 245 248 259 259 278 287 259 92 74 46 314 271 258 253 249
178 158 142 118 158 158 163 143 198 163 192 193 177 202 261 58 313 302 253 189 213 231 244 241 238 252 263 276 201 230 241 304 301 290 355 107 90 34 288 284 277 264 251
171 168 173 145 187 200 135 194 185 173 164 173 212 272 147 332 144 275 304 185 266 207 283 210 219 234 356 314 310 297 312 311 293 302 101 117 113 25 291 283 283 283 273
169 183 196 167 169 189 157 214 86 242 104 247 100 291 237 266 326 322 302 326 261 304 328 267 301 342 290 289 288 301 298 301 298 314 312 147 144 201 284 288 283 287 285
174 177 208 190 192 155 207 147 286 322 252 7 261 227 269 297 306 281 320 289 301 280 289 306 307 311 296 273 271 288 296 291 288 280 282 273 190 209 244 273 285 284 288
168 186 215 183 149 182 252 266 285 227 273 223 276 268 278 269 299 313 288 285 276 292 293 324 317 317 289 291 285 271 278 285 284 289 284 287 263 206 226 242 262 279 284
185 189 193 195 170 196 213 227 259 286 291 284 325 279 280 279 283 291 280 285 306 302 286 251 251 270 266 273 275 271 268 269 270 276 277 277 275 213 213 225 233 250 267
196 184 191 199 171 199 220 245 272 299 294 305 262 238 203 221 252 245 279 288 273 268 245 252 271 284 275 276 285 278 277 272 267 276 271 269 271 284 210 219 225 231 244
193 185 191 203 211 198 212 243 270 273 259 259 276 238 259 195 270 293 286 297 309 279 269 276 270 269 277 269 269 268 278 278 276 277 286 270 274 267 270 241 210 219 225
192 197 204 201 205 220 242 239 255 254 246 245 216 296 348 325 304 295 305 301 280 280 283 295 267 270 282 287 290 298 299 279 268 274 274 258 246 256 264 286 231 217 213
200 199 202 204 209 211 224 227 232 242 225 227 303 20 355 324 326 311 298 346 307 287 285 296 279 265 278 281 267 275 283 266 248 241 251 252 259 242 240 266 278 276 217
198 181 210 219 209 207 213 236 292 321 319 323 314 311 265 276 309 306 334 318 311 300 284 270 266 284 279 275 278 260 276 280 265 168 250 252 276 250 249 227 252 283 295
180 197 216 204 215 203 224 204 227 249 233 232 198 256 98 326 305 303 299 299 305 290 284 289 287 257 272 269 271 237 284 269 221 208 232 254 232 204 252 285 256 245 252
194 209 266 213 205 183 199 240 229 316 298 314 301 273 321 271 255 270 263 304 301 309 298 281 263 294 274 267 268 260 242 278 302 292 252 230 27 273 223 243 256 240 237
123 105 231 317 21 207 190 266 283 226 291 312 316 316 266 265 211 258 262 251 283 300 300 300 295 291 272 255 252 262 260 263 264 271 279 254 195 201 278 232 251 274 258
130 144 225 188 181 207 193 199 248 284 290 297 310 307 280 321 300 295 257 283 301 314 278 279 277 281 271 268 259 253 248 250 243 248 253 269 292 271 233 227 210 225 271